Location: Unspecified
(0.0000°N, 0.0000°E)
Time: 19:20:11
(UTC+02:00)

ARIANE DEB (SPELDA) - Visible Passes

Search period start: 23 August 2014 00:00
Search period end: 02 September 2014 00:00
Orbit: 331 x 33321 km, 3.4° (Epoch: 19 August)

Date Brightness Start Highest point End Pass type
(mag) Time Alt. Az. Time Alt. Az. Time Alt. Az.
24 Aug 6.5 04:13:29 10° E 04:13:29 10° E 04:13:34 10° E visible
24 Aug 5.3 14:41:10 10° W 23:23:12 59° WNW 23:23:12 59° WNW visible
26 Aug 5.0 05:04:51 38° E 05:04:51 38° E 05:15:14 10° E visible
26 Aug 10.2 15:58:15 10° W 17:11:48 20° W 19:27:17 10° W visible
27 Aug 6.4 00:04:20 10° W 00:14:31 26° W 00:14:31 26° W visible
28 Aug 3.8 05:56:06 74° WNW 05:56:51 88° N 14:37:35 10° E visible
29 Aug 6.3 11:29:28 10° W 20:22:17 86° N 20:37:54 10° E visible
30 Aug 4.9 06:47:15 25° W 06:52:07 88° S 15:43:37 10° E visible
31 Aug 5.5 12:26:40 10° W 21:21:34 83° N 21:29:12 28° E visible
